This is the latest recevied weather packets stored in our database for station/object KD4WXI. If no packets are shown the sender has not sent any weather packets the latest 10 day(s).
| Time | Temp. | Humidity | Pressure | Rain* | Wind** | Luminosity | Snow |
|---|---|---|---|---|---|---|---|
| 1777485760 | 22.78° C | 77% | 1011.2 hPa | 0 mm | - | 618 W/m² | - |
| 1777485455 | 22.22° C | 78% | 1011.6 hPa | 0 mm | - | 287 W/m² | - |
| 1777485152 | 22.22° C | 78% | 1011.6 hPa | 0 mm | - | 261 W/m² | - |
| 1777484848 | 21.67° C | 76% | 1011.4 hPa | 0 mm | - | 431 W/m² | - |
| 1777484545 | 22.22° C | 79% | 1011.6 hPa | 0 mm | - | 271 W/m² | - |
| 1777484242 | 22.22° C | 75% | 1011.7 hPa | 0 mm | - | 786 W/m² | - |
| 1777483938 | 22.22° C | 78% | 1011.9 hPa | 0 mm | - | 660 W/m² | - |
| 1777483635 | 21.67° C | 83% | 1011.9 hPa | 0 mm | - | 753 W/m² | - |
| 1777483330 | 21.67° C | 83% | 1011.9 hPa | 0 mm | - | 620 W/m² | - |
| 1777483026 | 21.11° C | 83% | 1012.3 hPa | 0 mm | - | 289 W/m² | - |
| 1777482723 | 20.56° C | 85% | 1012.3 hPa | 0 mm | - | 306 W/m² | - |
| 1777482419 | 20° C | 85% | 1012 hPa | 0 mm | - | 359 W/m² | - |
| 1777482116 | 20° C | 85% | 1012.5 hPa | 0 mm | - | 213 W/m² | - |
| 1777481814 | 20° C | 86% | 1012.7 hPa | 0 mm | - | 177 W/m² | - |
| 1777481511 | 20° C | 86% | 1012.8 hPa | 0 mm | - | 259 W/m² | - |
| 1777481207 | 20° C | 85% | 1012.8 hPa | 0 mm | - | 273 W/m² | - |
| 1777480904 | 20° C | 86% | 1013 hPa | 0 mm | - | 250 W/m² | - |
| 1777480601 | 19.44° C | 86% | 1013 hPa | 0 mm | - | 279 W/m² | - |
| 1777480298 | 18.89° C | 88% | 1013 hPa | 0 mm | - | 224 W/m² | - |
| 1777479993 | 18.89° C | 90% | 1013.1 hPa | 0 mm | - | 275 W/m² | - |
| 1777479691 | 18.33° C | 91% | 1013 hPa | 0 mm | - | 203 W/m² | - |
| 1777479389 | 17.78° C | 92% | 1013 hPa | 0 mm | - | 156 W/m² | - |
| 1777479084 | 17.78° C | 93% | 1013.3 hPa | 0 mm | - | 143 W/m² | - |
| 1777478781 | 17.78° C | 94% | 1013.3 hPa | 0 mm | - | 97 W/m² | - |
| 1777478478 | 17.78° C | 93% | 1013.2 hPa | 0 mm | - | 80 W/m² | - |
* Rain latest hour (hover to see other rain measurements)
** Current wind speed in m/s (hover to see current wind gust speed)